Location: ??????
(56.0120°N, 39.1740°E)
Time: 14:36:12
(UTC+00:00)

Cosmos 2298 Rocket - Pass Details

Date: 14 April 2026
Orbit: 772 x 782 km, 74.0° (Epoch: 17 May)

Event Time Altitude Azimuth Distance (km) Brightness Sun altitude
Exits shadow 20:20:49 41° 219° (SW) 1,114 4.5 -23.1°
Maximum altitude 20:22:42 80° 299° (WNW) 799 4.0 -23.1°
Drops below altitude 10° 20:28:03 10° 27° (NNE) 2,346 7.1 -23.3°
Sets 20:30:28 0° 29° (NNE) 3,280 8.0 -23.4°
